Simultaneous Nadir Overpasses (SNOs) Predictions

Prediction of SNOs between GOES-17 and NOAA-20 Satellite Orbit:

Table of predicted SNOs for the next 14.0 days since TLE Epoch: 8/17/2024
Index Date Time (GOES-17) GOES-17 Lat,Lon NOAA-20 Lat,Lon Distance(km) Time Diff (sec)
1 08/17/2024 08:17:06 -0.01,-104.70 -0.25,-103.61 123.34 80
2 08/18/2024 20:39:02 0.01,-104.70 -0.95,-108.91 480.84 80
3 08/19/2024 20:22:56 0.01,-104.70 0.07,-104.38 35.81 80
4 08/22/2024 08:25:56 -0.01,-104.69 0.11,-105.11 48.27 80
5 08/23/2024 08:04:31 -0.01,-104.69 -0.92,-100.58 468.34 80
6 08/24/2024 20:26:26 0.01,-104.69 -0.24,-105.89 135.61 80
7 08/25/2024 20:10:20 0.01,-104.69 0.74,-101.35 381.07 80
8 08/27/2024 08:32:06 -0.02,-104.69 0.39,-106.62 219.55 80
9 08/28/2024 08:10:39 -0.02,-104.69 -0.59,-102.08 296.80 80
10 08/29/2024 20:32:34 0.02,-104.68 -0.59,-107.38 307.51 80
11 08/30/2024 20:16:27 0.02,-104.68 0.40,-102.84 209.44 80
